Temperature
8 8 8 8 8 9 9 9 9 9 9 9 10 10 10 10 10 10 10 10 10 11 11 11 11 11 11 11 11 11 12 11 11 12 12 12 11 11 11 11 11 11 11
8 8 8 8 8 8 8 8 8 8 8 9 9 9 9 9 9 9 9 10 10 10 10 10 11 11 11 11 11 11 11 11 11 11 11 11 11 11 11 11 11 11 11
7 7 7 7 7 7 7 7 8 8 8 8 8 8 8 9 9 9 9 9 9 9 10 10 10 10 10 10 10 10 11 11 11 11 11 11 11 11 11 11 11 11 11
7 7 7 7 7 7 7 7 7 7 7 7 7 8 8 8 8 8 8 8 9 9 9 9 9 9 9 9 9 10 10 10 10 10 10 10 10 10 10 10 10 10 10
6 6 6 6 6 6 6 6 6 6 6 6 7 7 7 7 7 7 7 8 8 8 8 8 8 8 9 9 9 9 9 10 10 10 10 10 10 10 10 10 10 10 10
5 5 5 5 5 5 5 5 5 5 5 6 6 6 6 6 6 6 7 7 7 7 7 8 8 8 8 8 8 8 9 9 9 9 9 9 9 9 9 9 10 10 10
4 4 4 4 4 4 4 4 4 5 5 5 5 5 6 6 6 6 6 6 6 6 6 7 7 7 7 7 7 8 8 8 8 9 9 9 9 9 9 9 9 9 9
4 4 3 4 4 4 4 4 4 4 4 4 4 4 4 4 5 5 5 5 5 5 6 6 6 6 6 6 7 7 7 7 8 8 8 8 8 8 8 8 8 9 9
3 3 3 3 3 3 3 3 3 3 3 3 3 3 3 3 3 4 4 4 4 5 5 5 5 5 6 6 6 6 6 7 7 7 7 8 8 8 8 8 8 8 8
2 2 2 2 2 2 2 2 2 2 2 2 2 2 2 2 2 2 3 4 4 4 4 4 4 5 5 5 5 6 6 6 6 6 7 7 7 7 7 7 8 8 8
2 2 1 1 1 1 1 1 1 1 1 1 1 1 2 2 2 1 2 2 3 3 3 3 4 4 4 4 4 5 5 5 5 5 6 6 6 6 7 7 7 7 7
1 1 1 1 1 1 1 1 1 1 1 1 1 1 1 1 1 1 1 1 2 2 3 3 3 3 3 3 4 4 4 4 5 5 5 5 5 5 6 6 7 7 7
0 0 0 0 0 0 0 0 0 0 0 0 0 0 0 0 0 0 0 0 1 1 2 2 3 3 3 3 3 3 4 4 4 4 4 4 5 5 5 5 6 6 6
-0 -0 -0 -0 -0 -0 -1 -1 -1 -0 -0 -0 -0 -0 -0 -0 -0 -0 -0 -0 -0 -0 1 1 2 2 2 2 3 3 3 3 3 3 3 4 4 4 5 5 5 5 6
-1 -1 -1 -1 -1 -1 -1 -1 -1 -1 -1 -1 -1 -1 -1 -1 -1 -1 -1 -1 -1 -1 -1 0 1 1 1 2 2 2 2 3 3 3 3 3 3 4 4 4 4 5 5
-2 -2 -2 -2 -2 -2 -2 -2 -2 -2 -2 -2 -2 -2 -1 -1 -1 -1 -1 -1 -1 -1 -1 -1 -0 1 1 1 1 1 2 2 2 3 3 3 3 3 3 4 4 4 5
-2 -3 -3 -3 -3 -3 -3 -3 -3 -3 -3 -2 -2 -2 -2 -2 -2 -2 -2 -2 -2 -2 -2 -1 -1 -0 0 0 1 1 1 1 2 2 2 2 3 3 3 3 4 4 4
-3 -3 -3 -3 -3 -3 -3 -3 -3 -3 -3 -3 -3 -3 -3 -3 -2 -2 -2 -2 -2 -2 -2 -2 -1 -1 -1 -0 0 0 1 1 1 2 2 2 2 3 3 3 3 3 4
-4 -4 -4 -4 -4 -4 -4 -4 -4 -4 -4 -4 -4 -4 -3 -3 -3 -3 -3 -3 -3 -3 -3 -3 -2 -2 -1 -1 -1 -0 0 0 1 1 1 1 2 2 2 3 3 3 3
-4 -4 -4 -4 -4 -4 -4 -4 -4 -4 -4 -4 -5 -4 -4 -4 -4 -4 -4 -3 -3 -3 -3 -3 -3 -3 -2 -2 -1 -1 -1 -0 0 1 1 1 1 2 2 2 2 3 3
-5 -5 -5 -5 -5 -5 -5 -5 -5 -5 -5 -5 -5 -5 -5 -5 -5 -5 -4 -4 -4 -4 -4 -3 -3 -3 -3 -2 -2 -2 -1 -1 -0 0 0 1 1 1 2 2 2 2 2
-5 -5 -5 -5 -5 -5 -6 -6 -6 -5 -5 -6 -5 -5 -5 -5 -5 -5 -5 -4 -4 -4 -4 -4 -4 -4 -3 -3 -3 -2 -2 -2 -1 -1 -0 0 0 1 1 1 1 2 2
-5 -5 -6 -6 -6 -6 -6 -6 -6 -6 -6 -6 -6 -6 -6 -5 -5 -5 -5 -5 -5 -4 -4 -4 -4 -4 -4 -3 -3 -3 -2 -2 -2 -1 -1 -1 -0 0 1 1 1 1 1
-6 -6 -6 -6 -6 -6 -6 -6 -6 -6 -6 -6 -6 -6 -6 -6 -6 -6 -5 -5 -5 -5 -4 -4 -4 -4 -4 -4 -3 -3 -3 -3 -2 -2 -2 -1 -1 -1 -0 0 0 0 1
-6 -7 -7 -7 -7 -7 -7 -7 -7 -7 -6 -6 -6 -6 -6 -6 -6 -6 -6 -5 -5 -5 -5 -5 -5 -4 -4 -4 -4 -4 -3 -3 -3 -2 -2 -2 -2 -1 -1 -1 -0 -0 -0
-7 -7 -7 -7 -7 -7 -7 -7 -7 -7 -7 -7 -7 -7 -7 -7 -6 -6 -6 -6 -6 -6 -5 -5 -5 -5 -5 -4 -4 -4 -4 -4 -3 -3 -3 -2 -2 -2 -2 -1 -1 -1 -1
Wind_Speed
6 7 6 7 8 8 7 7 7 7 7 7 6 7 6 7 7 6 4 4 4 4 4 3 3 2 2 1 0 1 1 2 2 3 3 4 5 6 7 8 8 8 8
7 6 6 6 7 8 7 7 7 6 6 6 5 6 6 7 6 6 5 4 3 3 3 3 3 3 2 2 1 1 1 2 3 3 3 4 5 6 7 8 8 8 8
8 7 5 6 7 8 8 6 6 6 5 5 4 5 5 6 6 6 6 5 4 3 2 3 3 3 2 2 1 1 1 1 2 2 3 3 5 6 7 8 8 8 8
9 7 5 5 8 8 7 5 3 3 4 4 4 4 4 5 5 6 6 5 4 3 3 3 3 3 3 2 2 1 1 1 2 2 2 2 5 6 6 8 8 9 9
10 8 6 6 8 7 6 5 3 3 4 4 4 4 3 3 3 5 4 5 5 4 3 3 3 3 4 3 3 2 2 2 2 3 2 2 3 5 6 7 8 9 9
9 8 6 7 7 4 3 4 4 3 3 4 5 4 3 3 2 2 3 4 4 4 4 3 3 4 5 4 4 4 4 4 4 4 4 3 3 5 5 7 8 9 9
8 8 6 6 6 3 3 4 3 3 3 3 3 4 4 3 2 1 2 3 3 4 4 3 3 3 4 5 5 5 5 6 6 6 6 5 5 6 7 6 8 9 10
8 7 7 5 5 4 4 4 4 3 3 3 2 3 3 3 2 3 2 2 3 4 4 4 3 3 4 3 4 5 6 7 7 7 7 7 6 6 8 7 7 8 10
7 7 7 6 5 4 3 4 3 3 3 3 2 1 2 2 4 2 3 2 2 3 3 4 3 3 3 3 4 5 7 8 8 7 8 7 8 7 7 8 8 9 9
6 6 6 6 5 4 4 4 4 3 3 3 3 2 2 2 2 3 3 3 3 4 3 4 4 4 4 4 5 6 7 8 9 9 9 9 8 9 9 9 8 8 10
4 5 5 5 5 4 4 4 4 3 2 3 3 3 4 4 3 4 5 5 4 3 3 4 3 3 4 5 5 6 7 8 9 9 10 10 9 9 9 10 9 9 10
2 4 5 5 5 5 4 4 4 4 3 4 4 3 3 3 3 4 5 6 6 5 5 4 3 3 4 4 6 7 8 9 9 10 10 11 10 10 10 10 10 10 10
2 2 4 4 4 5 6 5 4 4 4 4 4 4 4 5 4 5 5 6 6 5 4 4 3 3 4 5 6 8 9 10 10 11 11 11 11 11 11 11 12 11 10
1 2 3 4 5 5 6 6 4 5 4 4 5 5 4 5 4 4 5 5 6 5 4 5 3 3 4 5 7 9 7 9 11 11 12 11 11 11 11 11 11 12 10
2 3 3 4 5 5 5 5 4 5 5 5 5 5 5 5 4 4 5 5 5 7 7 5 3 3 5 6 8 9 8 10 11 12 12 11 10 11 12 12 11 11 11
2 3 3 4 4 4 5 4 4 5 5 5 5 5 6 5 4 4 5 5 5 6 8 5 5 5 6 8 10 9 10 12 12 12 11 11 11 12 12 12 11 11 11
2 3 3 4 4 4 4 4 5 6 6 6 6 6 7 6 5 4 5 5 5 5 8 8 6 5 6 7 7 9 10 9 10 12 12 12 12 12 12 12 12 12 12
3 3 4 4 5 5 5 5 6 6 6 7 7 7 7 7 6 5 5 6 6 6 7 9 7 6 7 7 7 7 7 8 8 11 12 12 13 13 12 12 13 13 12
3 4 4 5 5 5 5 5 6 6 7 7 7 8 8 7 7 5 6 6 6 6 6 7 8 6 6 5 6 7 7 6 8 10 11 11 12 13 13 13 13 13 12
3 4 4 5 5 6 6 6 6 7 7 7 8 8 8 8 7 7 7 6 6 6 6 6 7 6 6 5 5 5 6 5 6 6 7 8 10 11 12 12 12 12 11
4 4 5 5 5 6 6 7 6 7 8 8 8 8 8 10 11 9 8 6 6 6 6 7 7 6 5 5 5 5 6 5 6 5 4 6 6 6 8 9 11 12 12
4 4 5 5 6 6 11 14 11 7 7 8 8 8 8 9 11 13 14 12 10 8 7 7 7 7 8 6 6 6 5 5 6 3 4 5 4 4 5 6 9 11 12
4 5 5 5 6 8 13 14 14 9 7 7 8 7 8 8 10 7 10 12 12 13 12 9 9 9 8 7 7 7 7 7 7 5 4 5 4 4 5 7 9 10 11
4 5 5 6 6 8 14 14 15 8 7 7 7 7 7 8 9 9 7 7 7 8 10 8 8 9 9 8 8 8 7 6 5 4 4 5 4 4 4 5 9 10 11
5 5 5 6 6 8 13 14 14 6 6 7 7 7 7 7 12 14 9 7 7 7 10 11 12 11 12 12 9 5 5 4 5 5 3 3 3 2 3 4 6 9 10
5 6 6 6 6 7 12 14 14 5 6 6 6 6 10 11 13 13 7 6 8 7 6 7 7 8 8 9 9 6 5 5 4 4 3 2 3 2 2 3 3 5 6
Wind_Direction
15 10 12 13 12 9 7 356 355 357 354 354 351 359 1 358 354 1 8 8 4 355 349 345 331 329 329 336 294 192 174 182 172 174 173 179 180 176 171 168 168 162 156
18 12 9 10 10 5 1 355 355 350 347 350 349 356 355 350 346 356 359 354 347 339 334 334 332 327 315 312 291 237 193 203 203 193 197 204 200 192 187 183 178 174 171
16 13 9 5 2 357 354 355 355 353 355 354 348 349 351 346 349 354 358 355 344 323 329 322 321 323 314 312 299 268 207 206 202 200 205 209 202 195 197 191 186 183 177
13 11 9 2 358 356 354 351 1 357 352 348 340 338 340 344 342 346 350 353 354 345 322 306 310 310 303 295 303 288 249 222 195 194 196 211 208 201 198 195 194 192 184
14 11 3 1 359 356 355 355 0 357 347 344 332 326 333 338 331 334 339 346 349 347 351 320 309 311 304 289 284 280 272 250 229 222 213 212 213 205 199 193 189 188 185
15 8 2 1 0 356 353 352 345 346 343 335 329 326 314 300 313 325 334 341 347 343 341 339 330 304 293 286 286 281 280 267 247 237 232 237 239 219 212 205 195 192 191
14 9 1 0 358 353 344 343 339 335 335 336 334 324 306 280 273 330 4 348 344 339 334 341 328 312 299 277 282 278 276 272 256 244 241 245 250 237 225 215 205 204 203
15 9 5 360 357 353 347 348 348 334 329 351 334 323 320 311 325 325 318 314 348 352 337 318 302 301 301 285 277 276 274 274 259 249 245 242 246 247 230 224 214 210 203
13 12 3 357 353 355 344 338 340 340 324 325 340 324 319 300 316 284 287 299 331 322 326 325 310 289 284 287 274 268 268 268 261 260 251 248 245 248 235 225 221 215 204
9 4 5 355 348 348 342 336 345 327 321 312 311 299 279 284 297 303 296 303 308 304 301 315 311 300 285 278 272 268 271 266 262 257 256 251 251 244 246 232 227 224 212
7 360 359 351 343 342 340 337 332 320 306 295 294 297 294 284 265 275 286 293 304 294 293 291 288 291 289 272 262 261 259 263 261 259 256 254 254 255 254 238 231 231 222
353 353 352 351 344 338 332 325 321 312 300 289 285 283 281 279 276 274 276 286 291 294 291 280 274 277 278 273 264 266 254 255 259 259 257 257 257 261 260 251 235 233 228
328 337 343 340 334 329 325 319 310 306 299 291 287 281 275 271 276 279 281 286 290 294 284 277 267 264 270 282 277 266 258 254 256 258 257 258 260 261 261 259 243 234 231
291 313 322 320 318 320 318 316 306 299 301 294 293 291 286 279 275 272 273 284 291 290 281 273 279 265 284 289 288 282 267 262 256 257 257 256 259 260 262 257 255 234 225
297 315 315 311 310 309 306 304 296 297 298 296 290 287 285 282 273 269 269 263 266 281 283 274 273 279 300 295 290 291 282 268 260 258 256 253 253 257 259 256 251 237 223
306 303 300 298 299 301 301 296 293 292 295 293 292 289 283 280 277 270 265 261 258 266 275 278 286 289 294 291 285 284 282 277 263 257 254 250 249 252 252 250 245 230 224
294 287 289 292 291 294 292 291 290 292 292 292 290 288 282 281 279 276 270 260 258 260 270 283 287 289 287 286 286 284 276 274 263 254 249 248 249 248 246 245 239 224 221
289 287 287 286 287 289 287 283 286 289 286 287 287 284 283 283 279 280 275 266 261 259 264 277 284 282 276 273 276 279 280 278 270 256 249 248 249 245 243 239 230 218 216
290 289 285 283 285 286 282 277 278 280 281 282 283 282 281 280 279 277 274 272 270 271 267 271 279 280 278 272 275 279 278 279 275 259 249 247 248 247 242 234 221 214 213
289 288 284 282 285 286 283 278 277 278 279 279 279 278 278 275 276 278 275 272 274 274 271 270 275 278 277 268 261 267 277 275 277 270 256 254 252 248 238 230 220 213 211
290 287 288 289 288 285 281 279 274 277 277 278 277 274 273 280 281 280 278 274 275 275 276 272 276 279 278 271 263 265 270 277 279 270 262 258 246 236 230 227 220 214 215
288 288 286 286 286 288 294 298 299 286 283 279 280 278 277 279 283 284 283 281 277 273 273 275 278 272 270 268 267 268 269 276 280 255 252 254 230 227 228 225 224 220 218
288 289 288 287 286 290 298 300 301 301 289 283 281 282 287 288 291 281 281 282 279 277 273 271 270 269 271 267 261 262 261 264 267 257 251 255 231 234 234 234 230 219 217
288 288 289 289 288 292 301 304 305 303 291 284 282 279 279 282 283 285 281 279 277 279 277 275 267 267 270 270 262 258 258 272 280 268 247 252 235 236 247 234 232 226 223
290 289 290 288 290 294 301 306 307 299 292 288 287 286 284 280 287 292 289 282 284 285 289 287 288 286 284 280 276 272 263 262 277 277 256 237 226 241 242 230 225 224 225
292 294 294 291 288 288 299 305 309 302 298 293 288 287 291 292 292 295 287 280 282 288 294 296 295 294 288 281 277 262 250 252 271 273 249 235 223 222 241 240 220 217 221
Height
1535 1535 1534 1534 1534 1533 1533 1532 1532 1532 1532 1533 1533 1533 1533 1534 1534 1534 1534 1535 1535 1536 1536 1536 1537 1537 1538 1538 1539 1540 1541 1542 1543 1544 1545 1546 1548 1549 1550 1551 1553 1554 1555
1534 1534 1533 1533 1532 1532 1531 1531 1530 1530 1530 1531 1531 1531 1531 1531 1531 1532 1532 1532 1532 1533 1533 1533 1534 1534 1535 1536 1537 1538 1538 1539 1541 1541 1542 1544 1545 1546 1548 1549 1550 1552 1553
1533 1532 1532 1531 1531 1530 1530 1529 1529 1528 1528 1528 1528 1528 1528 1528 1528 1529 1529 1529 1529 1529 1530 1530 1531 1531 1532 1533 1534 1534 1535 1536 1537 1538 1539 1541 1542 1543 1545 1546 1548 1549 1550
1531 1530 1530 1530 1529 1528 1528 1527 1526 1526 1526 1526 1525 1525 1525 1525 1525 1526 1526 1526 1526 1526 1527 1527 1527 1528 1529 1530 1530 1531 1532 1533 1534 1535 1536 1537 1539 1540 1541 1543 1544 1546 1547
1529 1528 1528 1527 1527 1526 1526 1525 1525 1524 1523 1523 1523 1522 1522 1522 1522 1523 1523 1523 1523 1523 1523 1524 1524 1525 1526 1526 1527 1528 1529 1530 1530 1532 1533 1534 1535 1537 1538 1539 1541 1542 1543
1527 1526 1526 1525 1525 1524 1524 1523 1523 1522 1522 1521 1520 1519 1519 1519 1519 1519 1520 1520 1520 1520 1520 1521 1521 1521 1522 1523 1523 1524 1525 1526 1527 1528 1529 1530 1532 1533 1534 1535 1537 1538 1540
1525 1524 1524 1523 1523 1522 1522 1521 1520 1520 1519 1519 1518 1516 1516 1516 1516 1516 1517 1517 1517 1517 1517 1517 1517 1518 1518 1519 1520 1520 1521 1522 1523 1524 1525 1527 1528 1529 1530 1532 1533 1534 1535
1523 1523 1522 1521 1520 1520 1519 1519 1518 1517 1517 1517 1516 1514 1513 1513 1513 1513 1513 1513 1513 1514 1514 1514 1514 1514 1514 1515 1515 1516 1517 1518 1519 1520 1521 1522 1523 1524 1526 1527 1528 1529 1531
1520 1520 1520 1519 1518 1518 1517 1516 1516 1515 1514 1514 1515 1515 1513 1511 1509 1508 1509 1509 1509 1509 1510 1510 1510 1510 1510 1510 1511 1512 1513 1514 1515 1515 1516 1517 1518 1519 1521 1522 1524 1525 1526
1518 1518 1517 1516 1516 1515 1515 1514 1513 1513 1512 1512 1512 1512 1513 1511 1510 1506 1505 1506 1506 1506 1506 1506 1505 1505 1506 1506 1507 1507 1508 1509 1510 1511 1512 1513 1513 1515 1516 1517 1518 1520 1522
1516 1515 1515 1514 1513 1513 1512 1511 1511 1510 1510 1509 1509 1508 1508 1508 1507 1506 1502 1500 1501 1501 1501 1501 1501 1501 1501 1502 1502 1503 1504 1504 1505 1506 1506 1508 1508 1509 1510 1512 1513 1515 1517
1513 1512 1512 1511 1510 1510 1509 1508 1508 1507 1506 1506 1505 1505 1505 1504 1503 1502 1499 1497 1496 1496 1496 1496 1496 1496 1497 1497 1498 1498 1499 1499 1500 1501 1502 1503 1503 1504 1505 1506 1508 1509 1511
1509 1509 1508 1507 1507 1506 1505 1505 1504 1503 1503 1502 1501 1501 1500 1500 1500 1499 1497 1494 1492 1491 1491 1491 1492 1492 1492 1492 1492 1493 1494 1494 1495 1496 1496 1497 1498 1498 1499 1500 1502 1504 1505
1506 1505 1505 1504 1503 1502 1502 1501 1500 1499 1498 1498 1497 1496 1496 1495 1495 1494 1494 1492 1488 1486 1486 1486 1486 1487 1487 1487 1487 1488 1488 1489 1490 1490 1491 1492 1492 1493 1494 1495 1496 1498 1500
1503 1502 1501 1500 1499 1498 1497 1497 1496 1495 1494 1493 1492 1491 1491 1490 1489 1489 1489 1488 1487 1483 1480 1480 1481 1481 1482 1482 1482 1482 1482 1483 1483 1484 1485 1485 1486 1487 1488 1489 1490 1492 1494
1499 1498 1497 1496 1495 1494 1493 1492 1491 1490 1489 1488 1487 1487 1486 1485 1484 1484 1484 1483 1482 1481 1477 1475 1475 1475 1476 1476 1476 1476 1476 1477 1477 1478 1478 1479 1480 1481 1482 1482 1484 1486 1488
1494 1493 1493 1492 1491 1490 1489 1487 1486 1485 1484 1483 1482 1482 1481 1480 1479 1478 1478 1477 1477 1476 1473 1470 1470 1470 1470 1470 1470 1470 1470 1470 1470 1471 1472 1472 1473 1474 1475 1476 1478 1480 1482
1490 1489 1488 1487 1486 1485 1484 1483 1481 1480 1479 1478 1477 1476 1475 1474 1473 1472 1472 1471 1471 1470 1469 1465 1464 1464 1464 1464 1464 1464 1463 1464 1464 1464 1465 1465 1466 1468 1469 1470 1471 1474 1477
1486 1485 1484 1483 1482 1481 1479 1478 1477 1475 1474 1473 1472 1471 1470 1469 1467 1466 1466 1465 1465 1464 1464 1462 1459 1459 1458 1458 1458 1458 1457 1457 1457 1458 1458 1459 1460 1461 1462 1463 1465 1468 1471
1482 1481 1480 1479 1477 1476 1475 1473 1472 1470 1469 1467 1467 1466 1465 1463 1462 1461 1461 1460 1459 1459 1458 1456 1455 1453 1452 1452 1452 1452 1450 1451 1451 1451 1451 1452 1453 1454 1455 1457 1459 1462 1464
1478 1477 1476 1474 1473 1471 1470 1468 1467 1465 1464 1462 1461 1460 1459 1458 1457 1456 1456 1455 1454 1453 1452 1451 1449 1448 1447 1446 1446 1446 1446 1444 1444 1444 1445 1445 1446 1447 1449 1451 1453 1456 1458
1474 1472 1471 1470 1468 1467 1465 1464 1463 1461 1459 1457 1455 1454 1453 1452 1451 1451 1451 1450 1450 1448 1446 1445 1444 1442 1441 1441 1441 1441 1441 1440 1438 1439 1440 1439 1440 1441 1442 1445 1447 1449 1452
1469 1468 1466 1465 1463 1462 1461 1459 1458 1456 1454 1452 1450 1449 1448 1446 1446 1446 1445 1444 1443 1442 1442 1441 1438 1437 1436 1436 1436 1435 1434 1434 1433 1433 1434 1432 1434 1434 1437 1439 1441 1443 1446
1465 1463 1462 1460 1459 1457 1456 1455 1453 1451 1449 1447 1445 1444 1442 1441 1441 1440 1439 1437 1436 1436 1435 1434 1433 1431 1431 1430 1430 1430 1429 1429 1428 1428 1429 1427 1428 1429 1431 1433 1435 1437 1440
1461 1459 1458 1456 1454 1452 1451 1450 1448 1446 1443 1441 1440 1439 1437 1436 1435 1435 1434 1432 1431 1430 1430 1429 1428 1426 1425 1425 1425 1425 1424 1423 1421 1421 1423 1423 1423 1424 1425 1427 1429 1432 1434
1457 1455 1453 1452 1450 1448 1447 1445 1444 1441 1439 1437 1435 1434 1433 1432 1431 1430 1429 1427 1425 1424 1424 1423 1422 1421 1420 1419 1419 1419 1419 1418 1417 1417 1418 1419 1419 1420 1420 1422 1424 1426 1428